Hourly Data Report for May 05, 2012

All times are specified in Local Standard Time (LST). Add 1 hour to adjust for Daylight Saving Time where and when it is observed.

ST. JOHN'S INTL A
NEWFOUNDLAND

47°37'07.000" N
52°45'09.000" W
140.50 m
8403505
71801
YYT

Download Data

Hourly Data (May 2012)
Hourly Data Report for May 5, 2012
Temp Definition
°C
Dew Point Temp Definition
°C
Rel Hum Definition
%
Wind Dir Definition
10's deg

Wind Spd Definition
km/h
Visibility Definition
km
Stn Press Definition
kPa
Hmdx Definition


Wind Chill Definition


Weather Definition


TIME
00:30 Legend Double Dagger 1.8 1.9 101 3 21 0.2 99.73     Drizzle,Fog
01:30 Legend Double Dagger 2.0 2.1 101 4 16 0.2 99.71     Drizzle,Fog
02:30 Legend Double Dagger 1.9 2.0 101 4 18 0.2 99.72     Drizzle,Fog
03:30 Legend Double Dagger 2.1 2.2 101 4 15 0.2 99.73     Drizzle,Fog
04:30 Legend Double Dagger 2.4 2.5 101 4 14 0.2 99.76     Drizzle,Fog
05:30 Legend Double Dagger 2.5 2.6 101 5 18 0.2 99.75     Drizzle,Fog
06:30 Legend Double Dagger 3.4 3.4 100 5 24 0.2 99.75     Drizzle,Fog
07:30 Legend Double Dagger 4.0 4.0 100 5 23 0.2 99.79     Drizzle,Fog
08:30 Legend Double Dagger 5.0 5.0 100 6 22 0.2 99.80     Drizzle,Fog
09:30 Legend Double Dagger 5.4 5.4 100 5 26 0.8 99.81     Drizzle,Fog
10:30 Legend Double Dagger 5.9 5.9 100 7 30 1.6 99.83     Fog
11:30 Legend Double Dagger 4.7 4.7 100 6 21 0.2 99.85     Fog
12:30 Legend Double Dagger 4.9 4.9 100 5 21 0.8 99.86     Fog
13:30 Legend Double Dagger 5.0 5.0 100 5 23 0.4 99.86     Fog
14:30 Legend Double Dagger 4.9 4.9 100 6 23 0.8 99.87     Fog
15:30 Legend Double Dagger 4.8 4.5 98 5 23 3.2 99.86     Fog
16:30 Legend Double Dagger 4.2 3.9 98 3 15 3.2 99.88     Fog
17:30 Legend Double Dagger 4.8 4.7 99 6 15 3.2 99.89     Fog
18:30 Legend Double Dagger 4.1 4.0 99 4 13 4.8 99.93     Fog
19:30 Legend Double Dagger 3.8 3.8 100 5 18 3.2 99.94     Rain,Fog
20:30 Legend Double Dagger 3.7 3.7 100 5 14 3.2 99.96     Drizzle,Fog
21:30 Legend Double Dagger 3.6 3.7 101 5 12 0.8 99.96     Drizzle,Fog
22:30 Legend Double Dagger 3.3 3.4 101 4 14 0.6 99.94     Drizzle,Fog
23:30 Legend Double Dagger 2.9 3.0 101 3 15 0.2 99.93     Drizzle,Fog

Notes on Data Quality.

Legend

  • E = Estimated
  • M = Missing
  • NA = Not Available
  • ‡ = Partner data that is not subject to review by the National Climate Archives
Date modified: